QPF
0.00 0.00 0.00 0.00 0.00 0.00 0.00 0.00 0.00 0.00 0.00 0.00 0.00 0.00 0.00 0.00 0.00 0.00 0.00 0.00 0.00 0.00 0.00 0.00 0.00 0.00 0.00 0.00 0.00 0.00 0.00 0.00 0.00 0.00 0.00 0.00 0.00 0.00 0.00 0.00 0.00 0.00 0.00 0.00
0.00 0.00 0.00 0.00 0.00 0.00 0.00 0.00 0.00 0.00 0.00 0.00 0.00 0.00 0.00 0.00 0.00 0.00 0.00 0.00 0.00 0.00 0.00 0.00 0.00 0.00 0.00 0.00 0.00 0.00 0.00 0.00 0.00 0.00 0.00 0.00 0.00 0.00 0.00 0.00 0.00 0.00 0.00 0.00
0.00 0.00 0.00 0.00 0.00 0.00 0.00 0.00 0.00 0.00 0.00 0.00 0.00 0.00 0.00 0.00 0.00 0.00 0.00 0.00 0.00 0.00 0.00 0.00 0.00 0.00 0.00 0.00 0.00 0.00 0.00 0.00 0.00 0.00 0.00 0.00 0.05 0.05 0.02 0.00 0.00 0.00 0.00 0.00
0.00 0.00 0.00 0.00 0.00 0.00 0.00 0.00 0.00 0.00 0.00 0.00 0.00 0.00 0.00 0.00 0.00 0.00 0.00 0.00 0.00 0.00 0.00 0.00 0.00 0.00 0.00 0.00 0.00 0.00 0.00 0.00 0.00 0.00 0.00 0.00 0.00 0.00 0.00 0.00 0.00 0.00 0.00 0.01
0.00 0.00 0.00 0.00 0.00 0.00 0.00 0.00 0.00 0.00 0.00 0.00 0.00 0.00 0.00 0.00 0.00 0.00 0.00 0.00 0.00 0.00 0.00 0.00 0.00 0.00 0.00 0.00 0.00 0.00 0.00 0.00 0.00 0.00 0.00 0.00 0.00 0.00 0.00 0.00 0.00 0.00 0.00 0.00
0.00 0.00 0.00 0.00 0.00 0.00 0.00 0.00 0.00 0.00 0.00 0.00 0.00 0.00 0.00 0.00 0.00 0.00 0.00 0.00 0.00 0.00 0.00 0.00 0.00 0.00 0.00 0.00 0.00 0.00 0.00 0.00 0.00 0.00 0.00 0.00 0.00 0.00 0.00 0.00 0.01 0.01 0.00 0.00
0.00 0.00 0.00 0.00 0.00 0.00 0.00 0.00 0.00 0.00 0.00 0.00 0.00 0.00 0.00 0.00 0.00 0.00 0.00 0.00 0.00 0.00 0.00 0.00 0.00 0.00 0.00 0.00 0.00 0.00 0.00 0.00 0.00 0.00 0.00 0.00 0.00 0.00 0.00 0.00 0.00 0.01 0.00 0.00
0.00 0.00 0.00 0.00 0.00 0.00 0.00 0.00 0.01 0.01 0.00 0.00 0.00 0.00 0.00 0.00 0.01 0.02 0.01 0.00 0.00 0.00 0.00 0.00 0.00 0.00 0.00 0.00 0.00 0.00 0.00 0.00 0.01 0.02 0.05 0.04 0.03 0.07 0.03 0.01 0.00 0.00 0.00 0.00
0.00 0.00 0.00 0.00 0.00 0.00 0.00 0.00 0.00 0.01 0.00 0.00 0.00 0.00 0.00 0.00 0.03 0.06 0.05 0.01 0.00 0.03 0.03 0.02 0.01 0.00 0.00 0.00 0.00 0.00 0.00 0.01 0.06 0.11 0.10 0.07 0.06 0.03 0.01 0.01 0.01 0.00 0.00 0.00
0.00 0.00 0.00 0.00 0.00 0.00 0.00 0.00 0.00 0.01 0.01 0.00 0.00 0.00 0.00 0.00 0.01 0.01 0.01 0.01 0.03 0.08 0.16 0.16 0.11 0.08 0.03 0.01 0.02 0.02 0.04 0.04 0.06 0.08 0.09 0.08 0.05 0.05 0.03 0.02 0.00 0.00 0.00 0.00
0.00 0.00 0.00 0.00 0.00 0.00 0.00 0.00 0.00 0.00 0.00 0.02 0.01 0.00 0.00 0.02 0.04 0.01 0.05 0.02 0.02 0.02 0.11 0.15 0.12 0.10 0.09 0.06 0.05 0.05 0.06 0.05 0.04 0.06 0.05 0.03 0.04 0.08 0.06 0.04 0.02 0.01 0.00 0.00
0.00 0.00 0.00 0.00 0.00 0.00 0.00 0.00 0.00 0.00 0.00 0.00 0.01 0.00 0.00 0.04 0.05 0.02 0.03 0.06 0.02 0.02 0.05 0.05 0.03 0.03 0.03 0.02 0.02 0.02 0.01 0.02 0.02 0.03 0.03 0.00 0.01 0.02 0.04 0.06 0.04 0.01 0.01 0.01
0.00 0.00 0.00 0.00 0.00 0.00 0.00 0.00 0.00 0.00 0.00 0.00 0.00 0.00 0.00 0.01 0.02 0.01 0.01 0.02 0.05 0.07 0.04 0.02 0.01 0.00 0.00 0.00 0.00 0.00 0.00 0.00 0.00 0.00 0.00 0.00 0.00 0.00 0.03 0.04 0.08 0.04 0.03 0.02
0.00 0.00 0.00 0.00 0.00 0.00 0.00 0.00 0.00 0.01 0.00 0.00 0.00 0.00 0.00 0.00 0.00 0.00 0.00 0.00 0.01 0.02 0.01 0.00 0.00 0.00 0.00 0.00 0.00 0.00 0.00 0.00 0.00 0.00 0.00 0.00 0.00 0.00 0.02 0.03 0.03 0.05 0.04 0.03
0.00 0.00 0.00 0.00 0.00 0.00 0.00 0.00 0.00 0.00 0.00 0.00 0.00 0.01 0.00 0.00 0.00 0.01 0.00 0.00 0.00 0.00 0.00 0.00 0.00 0.00 0.00 0.00 0.00 0.00 0.00 0.00 0.00 0.00 0.00 0.00 0.00 0.00 0.00 0.02 0.03 0.03 0.03 0.03
0.00 0.00 0.00 0.00 0.00 0.00 0.00 0.00 0.00 0.00 0.00 0.00 0.00 0.00 0.00 0.00 0.01 0.00 0.00 0.00 0.00 0.00 0.00 0.00 0.00 0.00 0.00 0.00 0.00 0.00 0.00 0.00 0.00 0.00 0.00 0.00 0.00 0.00 0.00 0.00 0.02 0.02 0.02 0.01
0.00 0.00 0.00 0.00 0.00 0.00 0.00 0.00 0.00 0.00 0.00 0.00 0.00 0.00 0.00 0.01 0.01 0.01 0.01 0.00 0.00 0.00 0.00 0.00 0.00 0.00 0.00 0.00 0.00 0.00 0.00 0.00 0.00 0.00 0.00 0.00 0.00 0.00 0.00 0.00 0.00 0.01 0.01 0.01
0.00 0.00 0.00 0.00 0.00 0.00 0.00 0.00 0.00 0.00 0.00 0.00 0.00 0.00 0.00 0.01 0.00 0.00 0.00 0.00 0.00 0.00 0.00 0.00 0.00 0.00 0.00 0.00 0.00 0.00 0.00 0.00 0.00 0.00 0.00 0.00 0.00 0.00 0.00 0.00 0.00 0.00 0.00 0.01
0.00 0.00 0.00 0.00 0.00 0.00 0.00 0.00 0.00 0.00 0.00 0.00 0.00 0.00 0.00 0.00 0.00 0.00 0.00 0.00 0.00 0.00 0.00 0.00 0.00 0.00 0.00 0.00 0.00 0.00 0.00 0.00 0.00 0.00 0.00 0.00 0.00 0.00 0.00 0.00 0.00 0.00 0.00 0.00
0.00 0.00 0.00 0.00 0.00 0.00 0.00 0.00 0.00 0.00 0.00 0.00 0.00 0.00 0.00 0.00 0.00 0.00 0.00 0.00 0.00 0.00 0.00 0.00 0.00 0.00 0.00 0.00 0.00 0.00 0.00 0.00 0.00 0.00 0.00 0.00 0.00 0.00 0.00 0.00 0.00 0.00 0.00 0.00
0.00 0.00 0.00 0.00 0.00 0.00 0.00 0.00 0.00 0.00 0.00 0.00 0.00 0.00 0.00 0.00 0.00 0.00 0.00 0.00 0.00 0.00 0.00 0.00 0.00 0.00 0.00 0.00 0.00 0.00 0.00 0.00 0.00 0.00 0.00 0.00 0.00 0.00 0.00 0.00 0.00 0.00 0.00 0.00
0.00 0.00 0.00 0.00 0.00 0.00 0.00 0.00 0.00 0.00 0.00 0.00 0.00 0.00 0.00 0.00 0.00 0.00 0.00 0.00 0.00 0.00 0.00 0.00 0.00 0.00 0.00 0.00 0.00 0.00 0.00 0.00 0.00 0.00 0.00 0.00 0.00 0.00 0.00 0.00 0.00 0.00 0.00 0.00
0.00 0.00 0.00 0.00 0.00 0.00 0.00 0.00 0.00 0.00 0.00 0.00 0.00 0.01 0.00 0.00 0.00 0.00 0.00 0.00 0.00 0.00 0.00 0.00 0.00 0.00 0.00 0.00 0.00 0.00 0.00 0.00 0.00 0.00 0.00 0.00 0.00 0.00 0.00 0.00 0.00 0.00 0.00 0.00
0.00 0.00 0.00 0.00 0.00 0.00 0.00 0.00 0.00 0.00 0.00 0.00 0.00 0.00 0.00 0.00 0.00 0.00 0.00 0.00 0.00 0.00 0.00 0.00 0.00 0.00 0.00 0.00 0.00 0.00 0.00 0.00 0.00 0.00 0.00 0.00 0.00 0.00 0.00 0.00 0.00 0.00 0.00 0.00
0.00 0.00 0.00 0.00 0.00 0.00 0.00 0.00 0.00 0.00 0.00 0.00 0.00 0.00 0.00 0.00 0.00 0.00 0.00 0.00 0.00 0.00 0.00 0.00 0.00 0.00 0.00 0.00 0.00 0.00 0.00 0.00 0.00 0.00 0.00 0.00 0.00 0.00 0.00 0.00 0.00 0.00 0.00 0.00
0.00 0.00 0.00 0.00 0.00 0.00 0.00 0.00 0.00 0.00 0.00 0.00 0.00 0.00 0.00 0.00 0.00 0.00 0.00 0.00 0.00 0.00 0.00 0.00 0.00 0.00 0.00 0.00 0.00 0.00 0.00 0.00 0.00 0.00 0.00 0.00 0.00 0.00 0.00 0.00 0.00 0.00 0.00 0.00
MSLP
1015.59 1016.68 1017.19 1017.47 1017.72 1017.91 1018.08 1017.80 1017.07 1015.47 1015.36 1014.26 1013.71 1011.62 1009.93 1009.19 1008.92 1007.78 1006.05 1005.08 1003.95 1002.79 1001.43 1000.58 1000.08 999.88 1000.20 1000.75 1000.66 1000.46 1001.17 1001.75 1002.89 1003.88 1004.70 1005.59 1005.92 1006.41 1007.01 1007.44 1007.91 1008.28 1008.95 1009.63
1016.58 1017.18 1017.37 1017.39 1017.58 1017.92 1018.01 1017.65 1016.66 1014.65 1014.86 1014.45 1013.05 1010.36 1008.81 1008.25 1006.97 1006.34 1005.09 1003.97 1002.92 1001.94 1000.74 1000.07 999.46 999.55 999.39 999.64 999.86 999.91 999.88 1000.46 1001.17 1002.16 1002.89 1003.86 1004.69 1005.60 1006.22 1007.03 1007.63 1007.90 1008.43 1009.10
1016.75 1017.35 1017.26 1017.40 1017.69 1017.73 1018.01 1017.64 1016.69 1016.46 1014.21 1013.38 1012.92 1009.83 1008.24 1006.40 1005.82 1004.45 1003.73 1002.98 1002.18 1001.26 1000.26 999.28 998.57 998.24 998.41 998.60 999.00 999.00 998.81 999.21 999.72 1000.74 1002.16 1003.33 1004.64 1005.65 1006.35 1006.86 1007.10 1007.31 1007.91 1008.39
1016.88 1017.33 1017.47 1017.80 1017.90 1017.88 1017.42 1017.28 1017.06 1016.27 1015.77 1014.21 1012.25 1010.37 1008.79 1005.26 1004.60 1003.29 1002.12 1001.34 1000.68 1000.02 999.14 998.51 997.83 997.38 997.25 997.10 997.77 997.91 997.73 998.11 998.77 999.91 1000.92 1001.87 1002.42 1003.80 1004.32 1004.95 1006.06 1006.81 1007.50 1008.07
1017.49 1017.50 1017.53 1017.68 1017.84 1017.75 1017.61 1017.14 1016.84 1015.72 1015.04 1014.73 1010.50 1012.10 1006.86 1005.51 1003.81 1002.07 1000.94 1000.16 999.47 998.54 997.69 997.12 996.78 996.30 996.05 995.91 996.40 997.02 997.05 997.65 997.91 998.84 999.67 1000.75 1001.69 1002.49 1003.45 1004.38 1005.40 1006.26 1007.01 1007.63
1017.80 1017.46 1017.58 1017.43 1017.57 1017.63 1017.54 1017.46 1015.74 1014.70 1014.75 1014.02 1011.63 1010.85 1007.31 1004.51 1002.60 1000.99 999.79 998.95 998.19 997.37 996.57 996.11 995.66 995.50 995.74 995.72 996.34 996.93 997.52 997.29 997.61 998.15 999.06 999.99 1000.88 1001.89 1002.89 1003.97 1004.81 1005.89 1006.69 1007.36
1018.68 1018.11 1017.54 1017.38 1017.42 1017.59 1018.07 1018.07 1017.52 1016.28 1015.09 1012.80 1010.91 1009.82 1006.21 1003.88 1002.08 1000.50 999.16 998.16 997.26 996.51 996.16 995.93 995.56 995.45 996.00 995.47 996.46 997.14 997.42 997.44 997.66 998.09 998.75 999.65 1000.37 1001.15 1001.89 1003.13 1004.36 1005.41 1006.06 1006.73
1019.05 1018.51 1018.14 1018.00 1018.24 1018.30 1018.51 1019.03 1019.48 1018.13 1016.15 1013.22 1010.80 1008.80 1005.31 1003.45 1002.01 1000.77 999.12 998.15 997.62 997.19 997.02 996.96 996.51 996.01 996.24 996.69 996.83 997.32 997.48 997.64 998.00 998.47 998.97 999.61 1000.33 1001.33 1002.11 1003.06 1003.82 1004.59 1005.26 1005.78
1019.14 1019.13 1018.52 1018.44 1018.37 1018.54 1018.90 1019.15 1019.02 1018.50 1016.09 1014.04 1010.39 1007.74 1005.02 1003.64 1002.72 1001.55 1000.46 998.99 998.19 998.35 998.35 998.26 998.41 997.89 997.38 996.87 997.12 997.76 998.12 998.13 998.32 998.88 999.62 999.84 1000.23 1000.84 1001.50 1002.48 1003.39 1003.99 1004.55 1005.12
1019.34 1019.51 1019.00 1018.71 1018.58 1018.63 1018.67 1018.91 1018.87 1018.42 1016.54 1013.85 1010.27 1007.86 1005.69 1004.28 1003.47 1002.47 1002.14 1001.43 1000.86 999.68 999.45 999.77 999.62 999.31 998.87 998.50 998.45 999.05 999.44 999.54 998.89 999.34 999.71 999.87 1000.37 1000.85 1001.42 1002.19 1003.00 1003.61 1004.22 1004.83
1019.38 1020.19 1019.90 1019.27 1019.19 1018.85 1019.06 1019.11 1019.18 1018.56 1017.36 1014.77 1011.25 1007.65 1006.44 1005.72 1004.65 1003.33 1003.39 1003.18 1001.90 1001.07 1001.12 1001.46 1001.39 1000.77 1000.69 1000.73 1000.61 1000.46 1000.47 1000.17 1000.03 1000.24 1000.06 1000.09 1000.63 1001.15 1001.82 1002.34 1002.72 1003.21 1003.81 1004.46
1019.64 1020.62 1020.59 1020.08 1018.85 1018.49 1018.93 1019.14 1018.96 1018.35 1016.44 1014.47 1012.40 1008.34 1007.66 1006.85 1005.88 1004.91 1004.58 1004.19 1003.46 1003.18 1002.55 1002.97 1002.58 1001.86 1002.02 1002.60 1002.71 1002.07 1002.06 1001.35 1001.47 1001.60 1001.12 1001.04 1001.44 1001.73 1002.02 1002.22 1002.51 1002.96 1003.35 1004.05
1019.77 1020.72 1020.86 1020.29 1019.82 1019.20 1019.29 1018.89 1018.57 1017.85 1016.43 1014.79 1012.88 1009.74 1008.69 1008.33 1007.24 1006.14 1005.43 1005.20 1004.80 1004.83 1004.46 1003.36 1002.73 1002.63 1002.46 1004.17 1004.59 1003.14 1003.49 1003.52 1003.01 1002.82 1002.44 1002.43 1002.70 1002.46 1002.61 1002.58 1002.76 1003.00 1003.44 1003.93
1019.88 1020.79 1021.48 1021.14 1020.62 1020.27 1019.91 1018.82 1018.54 1017.87 1016.98 1015.41 1013.94 1012.33 1010.32 1009.95 1008.72 1007.48 1006.90 1006.89 1006.69 1006.35 1006.33 1005.26 1005.25 1005.20 1004.13 1005.69 1006.13 1005.24 1005.20 1004.93 1004.43 1003.99 1004.15 1004.14 1003.97 1003.52 1003.08 1002.93 1002.90 1003.14 1003.48 1003.90
1020.38 1021.05 1020.98 1020.45 1020.33 1020.02 1019.64 1019.23 1018.66 1017.97 1017.49 1016.58 1014.92 1013.38 1012.17 1011.64 1010.36 1009.23 1008.73 1008.03 1008.05 1008.13 1008.31 1007.98 1007.66 1007.24 1006.34 1008.14 1007.69 1007.01 1006.72 1006.45 1006.34 1005.95 1005.74 1005.65 1005.18 1004.48 1003.96 1003.58 1003.46 1003.42 1003.66 1003.78
1020.73 1021.04 1020.52 1020.13 1019.58 1019.30 1019.14 1019.29 1018.77 1017.83 1017.64 1016.73 1015.59 1014.24 1013.90 1011.98 1011.25 1010.44 1010.15 1009.67 1009.44 1009.88 1010.00 1009.62 1008.94 1008.52 1008.10 1009.01 1008.95 1008.64 1007.99 1007.63 1007.57 1007.15 1006.95 1006.71 1006.17 1005.70 1005.13 1004.67 1004.19 1003.95 1003.74 1003.85
1020.81 1020.90 1020.57 1019.92 1019.17 1018.77 1018.94 1018.87 1018.64 1018.19 1018.40 1018.23 1017.00 1016.37 1015.20 1014.13 1013.25 1012.86 1012.02 1011.97 1011.71 1011.52 1011.61 1011.00 1010.34 1009.81 1009.68 1010.46 1010.14 1009.63 1009.18 1009.04 1008.81 1008.42 1008.07 1007.86 1007.46 1006.86 1006.36 1005.79 1005.41 1004.95 1004.96 1004.23
1020.24 1020.54 1020.72 1020.20 1019.33 1018.98 1018.83 1018.61 1018.85 1018.78 1018.66 1018.97 1018.37 1017.14 1016.36 1015.97 1015.68 1014.80 1014.01 1013.48 1013.08 1012.77 1013.00 1013.00 1012.38 1011.53 1012.11 1011.56 1010.83 1010.70 1010.42 1010.26 1009.83 1009.52 1009.28 1009.08 1008.73 1008.13 1007.60 1007.07 1006.60 1006.26 1005.78 1005.33
1019.66 1020.12 1020.44 1020.35 1019.72 1018.88 1018.64 1018.73 1019.37 1019.47 1018.94 1019.25 1019.00 1018.11 1017.07 1016.39 1015.95 1015.63 1016.11 1015.74 1015.68 1014.80 1015.12 1014.90 1014.43 1013.69 1012.73 1012.24 1012.03 1011.71 1011.37 1011.16 1010.85 1010.70 1010.60 1010.27 1009.84 1009.20 1008.74 1008.40 1007.81 1007.24 1006.66 1006.31
1019.48 1019.87 1020.51 1020.40 1020.24 1019.47 1019.05 1018.60 1019.06 1019.20 1019.52 1019.41 1019.01 1018.64 1017.83 1017.23 1017.14 1017.65 1017.47 1017.12 1016.58 1016.14 1015.94 1015.81 1015.38 1015.06 1014.14 1013.18 1012.69 1012.53 1012.41 1012.28 1011.97 1011.96 1011.70 1011.21 1010.56 1010.17 1009.97 1009.45 1008.74 1008.01 1007.51 1007.11
1019.93 1020.38 1020.69 1020.71 1020.50 1019.74 1019.31 1019.11 1018.63 1019.59 1020.37 1019.75 1019.77 1019.06 1018.64 1018.55 1018.90 1018.72 1018.35 1017.98 1017.86 1017.41 1016.98 1016.64 1016.27 1015.62 1014.86 1014.43 1013.92 1013.53 1013.39 1013.15 1013.12 1012.76 1012.45 1011.91 1011.33 1010.93 1010.56 1010.26 1009.65 1008.91 1008.34 1007.85
1020.40 1020.84 1021.06 1021.05 1020.82 1020.47 1019.97 1019.34 1019.75 1020.68 1020.26 1020.18 1019.69 1019.16 1019.06 1019.33 1019.24 1019.28 1019.11 1018.83 1018.59 1018.36 1017.96 1017.70 1017.28 1016.52 1016.13 1015.79 1015.30 1014.78 1014.45 1014.35 1013.97 1013.58 1013.13 1012.74 1012.34 1011.69 1011.40 1011.06 1010.45 1009.75 1009.14 1008.57
1020.88 1020.87 1021.12 1021.20 1020.61 1020.18 1020.29 1020.65 1020.71 1020.79 1020.79 1020.59 1020.27 1019.76 1019.54 1019.51 1019.57 1019.46 1019.58 1019.58 1019.51 1019.30 1018.90 1018.74 1018.00 1017.41 1017.11 1016.62 1016.23 1015.70 1015.41 1014.94 1014.48 1014.21 1013.93 1013.73 1013.22 1012.57 1012.20 1011.82 1011.21 1010.38 1009.95 1009.74
1020.80 1020.76 1021.07 1021.22 1020.23 1020.31 1020.58 1020.66 1020.95 1020.99 1020.87 1020.89 1020.65 1020.29 1020.15 1020.08 1020.19 1020.24 1020.35 1020.48 1020.32 1019.89 1019.72 1019.28 1018.85 1018.21 1017.95 1017.42 1017.05 1016.49 1016.06 1015.41 1015.05 1015.06 1015.05 1014.88 1014.32 1013.86 1013.10 1012.81 1011.98 1011.60 1011.26 1011.12
1021.24 1021.14 1021.14 1020.94 1020.55 1020.53 1020.67 1020.95 1021.28 1021.08 1020.93 1020.98 1020.85 1020.75 1020.70 1020.81 1020.95 1021.01 1021.33 1021.53 1021.31 1020.93 1020.82 1020.46 1019.95 1019.48 1019.07 1018.33 1017.81 1017.19 1016.69 1016.10 1015.96 1015.91 1015.89 1015.57 1015.19 1014.96 1014.37 1014.03 1013.43 1012.95 1012.65 1012.45
1020.75 1020.69 1020.98 1020.70 1020.05 1020.33 1020.64 1021.02 1021.45 1021.53 1021.35 1021.09 1021.24 1021.26 1021.22 1021.35 1021.51 1021.55 1021.74 1021.97 1022.06 1022.09 1021.98 1021.48 1021.10 1020.49 1019.76 1019.06 1018.25 1017.74 1017.23 1016.91 1016.59 1016.51 1016.72 1016.46 1016.24 1016.08 1015.55 1015.20 1014.54 1014.12 1014.03 1013.59
Thickness
5571 5553 5552 5556 5552 5547 5540 5535 5536 5560 5551 5546 5539 5555 5574 5577 5566 5577 5594 5604 5615 5628 5653 5668 5678 5683 5683 5684 5692 5702 5705 5710 5705 5701 5698 5694 5695 5696 5693 5692 5689 5687 5682 5678
5552 5545 5552 5552 5544 5536 5530 5527 5535 5556 5547 5535 5535 5546 5567 5567 5568 5564 5578 5590 5603 5619 5637 5651 5664 5664 5675 5680 5685 5693 5701 5707 5708 5707 5707 5701 5697 5693 5691 5687 5685 5682 5680 5677
5545 5547 5548 5541 5533 5530 5524 5518 5523 5512 5539 5541 5512 5530 5545 5556 5542 5548 5556 5568 5584 5601 5618 5637 5652 5661 5663 5670 5678 5687 5698 5702 5709 5709 5703 5694 5686 5680 5678 5681 5682 5682 5678 5676
5546 5542 5535 5525 5523 5520 5511 5518 5510 5506 5493 5483 5517 5470 5512 5539 5528 5533 5538 5547 5567 5589 5612 5627 5639 5649 5657 5667 5674 5682 5695 5700 5704 5702 5701 5697 5696 5687 5691 5689 5681 5679 5676 5672
5534 5530 5521 5518 5517 5512 5503 5505 5500 5501 5484 5468 5511 5453 5515 5517 5512 5518 5521 5525 5544 5581 5607 5624 5632 5643 5654 5662 5667 5670 5685 5694 5699 5698 5701 5697 5693 5694 5688 5684 5679 5674 5672 5670
5524 5526 5521 5518 5513 5503 5497 5486 5501 5494 5475 5458 5489 5475 5503 5509 5509 5513 5517 5526 5548 5580 5604 5618 5630 5639 5641 5650 5662 5667 5673 5685 5691 5694 5694 5693 5691 5688 5683 5678 5674 5667 5665 5664
5502 5514 5515 5511 5501 5497 5474 5464 5455 5471 5480 5495 5508 5492 5510 5515 5516 5521 5527 5536 5558 5580 5591 5605 5618 5626 5633 5649 5652 5656 5664 5674 5682 5685 5686 5686 5687 5685 5682 5675 5668 5661 5661 5660
5485 5491 5501 5496 5486 5476 5465 5448 5431 5435 5459 5471 5499 5486 5512 5524 5529 5529 5537 5542 5554 5571 5586 5595 5604 5616 5623 5631 5641 5650 5656 5663 5670 5673 5677 5678 5677 5672 5669 5666 5665 5661 5659 5660
5476 5479 5496 5482 5481 5470 5450 5437 5448 5429 5455 5457 5488 5505 5519 5527 5520 5522 5531 5550 5566 5569 5577 5584 5588 5599 5611 5626 5637 5641 5646 5653 5657 5658 5656 5662 5666 5666 5664 5663 5660 5658 5658 5658
5485 5458 5487 5481 5471 5460 5454 5451 5434 5436 5442 5454 5483 5500 5503 5515 5517 5527 5524 5530 5539 5557 5567 5567 5574 5583 5594 5607 5617 5622 5629 5634 5647 5645 5646 5652 5655 5656 5657 5655 5655 5654 5653 5651
5474 5453 5465 5462 5442 5443 5428 5421 5435 5436 5429 5449 5467 5500 5512 5509 5515 5524 5522 5525 5537 5547 5551 5553 5557 5569 5577 5584 5594 5604 5612 5622 5628 5631 5636 5641 5643 5645 5643 5646 5648 5649 5646 5645
5461 5436 5440 5449 5457 5453 5445 5444 5437 5430 5440 5462 5456 5489 5502 5504 5511 5516 5514 5511 5527 5530 5536 5535 5545 5555 5560 5564 5569 5583 5591 5604 5607 5612 5621 5627 5629 5631 5634 5637 5639 5640 5640 5638
5460 5425 5421 5446 5436 5444 5436 5441 5445 5439 5448 5457 5469 5486 5500 5487 5499 5509 5508 5502 5515 5517 5520 5525 5542 5548 5554 5545 5548 5565 5569 5576 5586 5594 5602 5607 5610 5620 5622 5626 5629 5630 5630 5630
5450 5428 5403 5387 5410 5414 5409 5432 5438 5435 5438 5447 5461 5451 5483 5474 5484 5499 5500 5491 5492 5495 5502 5513 5521 5526 5540 5531 5531 5544 5550 5556 5567 5577 5580 5584 5591 5600 5610 5614 5618 5620 5621 5620
5438 5411 5409 5419 5419 5421 5421 5430 5428 5432 5433 5434 5440 5450 5462 5456 5469 5487 5489 5490 5491 5487 5485 5491 5501 5507 5517 5505 5513 5524 5531 5539 5544 5553 5559 5564 5574 5585 5593 5598 5606 5610 5611 5613
5424 5414 5423 5425 5424 5429 5428 5423 5422 5439 5433 5439 5439 5450 5439 5462 5467 5483 5484 5484 5482 5473 5467 5473 5486 5496 5501 5497 5501 5508 5519 5527 5532 5540 5545 5550 5559 5568 5576 5583 5591 5598 5604 5604
5415 5410 5413 5416 5425 5427 5428 5411 5420 5424 5424 5414 5423 5425 5431 5441 5441 5448 5462 5462 5461 5460 5451 5457 5467 5477 5484 5481 5488 5496 5505 5512 5517 5524 5531 5537 5543 5551 5558 5567 5573 5579 5585 5593
5412 5407 5402 5404 5416 5396 5414 5428 5421 5415 5417 5406 5411 5417 5422 5426 5422 5429 5439 5445 5449 5449 5445 5444 5451 5459 5458 5468 5478 5483 5489 5495 5504 5510 5515 5520 5525 5534 5542 5549 5556 5561 5568 5575
5411 5402 5391 5406 5417 5431 5419 5422 5406 5403 5415 5403 5402 5409 5417 5422 5419 5422 5418 5423 5422 5434 5429 5431 5436 5443 5453 5459 5464 5471 5477 5483 5490 5494 5498 5503 5510 5519 5526 5530 5538 5545 5553 5559
5412 5406 5396 5398 5403 5392 5405 5416 5403 5406 5408 5395 5400 5398 5411 5416 5417 5411 5408 5411 5416 5423 5423 5424 5428 5431 5441 5452 5460 5462 5467 5471 5476 5479 5483 5490 5498 5505 5508 5514 5523 5532 5539 5544
5396 5392 5394 5392 5401 5397 5402 5398 5405 5410 5389 5391 5390 5396 5397 5397 5395 5394 5394 5399 5402 5408 5414 5418 5421 5428 5436 5439 5447 5453 5456 5460 5462 5467 5472 5479 5487 5493 5498 5501 5509 5517 5524 5529
5386 5378 5360 5373 5378 5387 5386 5399 5395 5383 5386 5385 5390 5395 5394 5384 5384 5385 5386 5390 5392 5396 5401 5405 5410 5419 5423 5427 5433 5440 5444 5446 5451 5457 5462 5468 5473 5481 5485 5488 5495 5504 5511 5517
5369 5370 5365 5370 5371 5380 5380 5379 5380 5378 5377 5379 5381 5388 5388 5387 5383 5382 5382 5379 5379 5384 5389 5393 5401 5408 5411 5417 5422 5429 5432 5437 5442 5447 5451 5454 5460 5468 5472 5476 5484 5492 5498 5501
5378 5378 5361 5370 5376 5373 5371 5374 5370 5371 5373 5373 5375 5380 5381 5379 5377 5375 5372 5369 5368 5375 5378 5385 5392 5398 5401 5408 5412 5417 5422 5430 5434 5435 5437 5440 5446 5451 5458 5461 5470 5474 5477 5480
5351 5356 5351 5362 5365 5367 5366 5362 5358 5363 5370 5369 5370 5370 5371 5371 5368 5367 5364 5358 5360 5364 5367 5373 5378 5383 5388 5397 5402 5407 5412 5419 5422 5424 5425 5429 5433 5436 5441 5444 5449 5454 5457 5460
5347 5343 5335 5339 5355 5355 5360 5356 5352 5351 5356 5362 5360 5363 5365 5363 5360 5361 5359 5356 5355 5354 5354 5361 5366 5372 5379 5387 5395 5399 5404 5408 5413 5416 5415 5417 5419 5421 5425 5428 5434 5437 5438 5441